Theta_e
297 297 297 298 298 299 299 299 300 300 301 302 302 305 310 312 310 312 311 310 312 313 312 312 313 313 313 313 313 313 312 312 311 311 311 311 311 312 311 312 312 313 313 313 312 312 312 312 311 311 311 311 312 312 312 311 311 310 309 311 313 312 311 310 309 309 309 310 311 312 312 312 312 313 313 313 313 312 313 313 314 314 314 313 314 313 315
296 296 296 297 298 298 299 299 299 300 301 301 302 307 313 311 309 312 310 308 310 312 312 311 311 312 313 313 313 312 312 312 311 311 312 311 312 312 312 312 313 312 312 312 312 312 312 311 311 311 310 311 311 312 311 310 310 311 311 313 313 312 311 310 310 310 311 311 311 311 312 312 312 312 312 312 312 313 314 313 314 315 314 313 313 313 314
296 296 296 297 297 298 298 299 299 300 301 301 302 307 312 310 309 311 310 309 309 310 311 312 312 312 313 314 313 312 311 311 311 311 312 312 312 312 312 313 312 312 311 311 311 310 311 311 311 310 310 310 311 311 311 309 310 312 312 312 312 311 311 311 311 311 311 311 310 310 311 312 312 312 312 312 312 313 314 313 314 314 314 313 312 312 314
296 296 296 296 297 298 298 299 299 300 301 301 304 309 312 311 310 310 310 309 309 310 311 312 312 311 312 313 313 311 311 311 311 311 311 311 311 311 312 312 311 311 311 311 311 310 310 310 310 310 310 310 311 311 310 310 312 312 310 310 311 311 311 311 311 311 311 311 310 310 311 311 311 312 312 312 312 313 313 312 313 313 313 312 313 313 313
296 296 296 296 296 297 298 298 298 300 300 302 307 310 310 309 310 311 311 310 310 310 311 311 311 311 311 312 312 312 311 311 310 310 310 310 310 310 311 310 310 310 311 311 311 311 310 310 310 309 309 310 310 310 310 310 310 309 309 310 310 310 310 311 312 311 311 311 310 310 311 311 310 311 311 312 312 312 313 312 312 313 312 312 313 313 313
296 296 296 295 296 296 297 297 298 299 300 302 307 311 309 308 310 309 309 310 310 310 310 310 311 311 311 311 312 312 312 311 311 310 310 310 310 310 310 310 309 309 310 311 311 311 311 310 310 310 310 310 310 309 309 310 309 308 310 310 311 310 310 311 311 311 311 310 310 310 310 310 310 310 311 311 312 312 313 312 312 313 312 312 313 313 313
296 296 295 295 295 296 296 297 297 299 300 301 305 308 307 308 309 308 308 310 310 309 309 310 310 310 310 310 310 311 311 311 311 310 310 310 310 309 309 309 309 309 309 310 311 311 311 311 311 311 311 311 310 310 309 310 310 309 309 310 311 310 310 311 311 310 310 310 310 309 310 309 309 310 310 310 311 311 312 312 312 312 312 312 312 313 313
296 296 295 295 295 295 296 296 296 298 299 301 303 304 306 307 307 307 309 310 309 308 309 309 309 310 309 309 309 310 310 310 309 309 309 310 311 310 309 309 309 308 308 309 310 311 312 312 312 312 312 311 311 310 310 310 310 309 309 310 311 310 310 311 310 309 309 309 309 309 309 309 309 309 310 310 310 311 311 311 312 312 312 312 312 313 313
296 296 295 295 295 295 295 295 296 296 298 301 303 301 302 305 305 305 309 310 306 307 309 308 308 308 309 309 309 309 309 309 309 308 307 309 310 309 309 310 309 308 308 310 310 309 310 311 311 311 311 311 310 309 310 309 309 309 309 310 310 309 310 310 309 309 309 309 308 309 309 308 309 310 310 310 311 311 311 311 311 311 311 312 311 312 311
296 296 296 295 295 295 294 295 295 295 296 300 302 300 299 303 305 305 308 309 305 306 308 307 307 308 308 308 308 307 308 308 308 307 306 307 307 307 308 310 309 309 309 309 307 307 307 308 308 308 308 309 309 308 309 308 308 309 309 309 309 309 309 309 308 309 309 308 308 308 309 308 308 309 310 310 310 310 310 310 310 311 311 311 310 310 311
296 296 296 296 295 294 294 294 294 295 294 297 300 300 297 300 304 306 307 307 305 306 307 307 307 308 308 307 307 307 307 307 308 307 307 307 306 306 307 308 309 308 307 306 305 305 306 305 306 306 307 307 307 308 308 308 308 308 308 308 308 309 308 308 308 308 308 308 308 308 308 307 307 309 310 309 309 309 309 310 310 310 310 310 310 310 311
296 296 295 295 295 295 295 294 293 294 293 294 298 299 295 297 303 306 305 305 305 305 306 305 305 307 307 306 307 307 306 306 307 307 307 308 307 306 306 307 308 306 305 304 304 305 306 306 306 306 306 307 307 307 307 307 307 308 308 308 308 308 308 307 307 307 307 307 307 308 307 308 309 309 309 308 309 308 308 308 309 309 309 310 310 310 310
296 296 295 295 296 295 295 294 294 294 293 293 297 296 293 295 301 304 305 305 304 304 305 305 305 305 306 306 306 306 306 305 306 306 306 307 307 306 305 305 305 304 303 304 304 305 306 306 306 306 306 306 307 307 307 306 306 307 307 307 307 307 306 306 306 306 306 306 306 307 307 308 308 308 308 307 308 307 307 307 307 308 309 309 308 308 309
296 296 295 295 295 295 295 294 294 294 293 293 296 296 293 293 298 301 304 305 304 304 304 305 305 305 305 306 305 305 305 305 305 305 305 305 306 305 304 303 303 302 302 303 304 305 305 305 305 306 306 306 306 306 306 306 306 306 307 307 307 306 306 306 306 306 306 306 306 307 307 307 307 308 308 308 308 307 307 307 308 308 308 308 308 308 308
296 296 295 295 295 295 295 295 294 294 293 293 297 297 293 291 294 298 302 304 303 303 304 303 304 304 304 305 304 304 305 305 304 305 304 304 304 303 302 302 302 302 302 303 304 305 304 304 305 305 305 305 306 306 306 305 306 306 306 306 306 306 306 305 305 305 306 305 305 306 306 306 307 308 308 308 308 308 308 307 307 307 307 307 306 307 307
296 296 295 295 294 294 295 295 294 294 293 293 297 298 295 292 292 295 301 304 302 302 303 301 301 303 303 304 303 302 304 304 303 304 304 304 303 302 302 301 301 301 302 303 304 304 304 304 304 304 305 305 305 305 305 305 305 305 305 305 305 306 305 305 305 305 305 305 305 305 305 306 307 307 307 307 307 307 307 306 305 306 307 306 305 306 307
296 296 296 295 294 294 295 295 294 294 293 293 298 299 296 293 292 294 299 303 302 301 301 299 300 303 303 303 303 303 303 303 303 303 303 303 303 302 301 301 301 301 301 302 304 303 303 304 304 304 304 304 304 305 305 305 305 305 304 304 304 305 305 305 304 304 305 305 305 305 305 306 306 306 305 306 306 306 305 304 304 304 305 305 304 305 306
296 296 296 296 295 293 294 294 294 294 294 294 298 299 296 293 292 294 299 302 301 301 300 298 300 302 301 300 302 301 301 302 303 302 302 303 303 302 301 301 302 302 301 302 303 303 303 303 303 303 304 304 304 304 304 304 304 304 304 304 304 304 304 304 304 304 304 304 304 304 304 305 305 305 304 304 305 304 303 303 303 304 304 304 304 304 304
296 296 296 296 295 293 293 294 294 294 294 294 298 300 296 292 291 294 299 301 301 301 300 298 299 300 299 299 301 300 300 301 302 302 302 302 302 301 300 300 301 302 302 302 302 303 303 303 303 303 303 304 303 303 303 303 303 303 303 303 303 304 304 304 304 304 304 304 304 303 304 304 304 304 304 304 304 303 302 302 303 303 304 304 303 303 303
296 296 296 296 295 294 293 293 294 294 294 294 297 300 298 294 292 293 296 300 301 301 300 298 298 298 298 299 301 301 301 301 301 301 302 301 301 301 301 301 301 301 302 302 301 302 302 302 303 303 303 303 303 302 303 303 302 302 302 303 303 303 303 303 303 303 303 303 303 303 303 303 303 303 303 303 302 302 302 302 302 303 302 302 302 302 303
296 296 296 296 296 294 293 293 293 294 294 294 296 299 298 296 293 292 294 298 301 301 300 298 297 298 298 299 299 299 300 300 300 301 301 301 300 300 301 301 301 301 301 301 300 301 301 301 302 302 302 302 302 302 302 301 301 302 302 302 302 302 302 302 302 302 302 302 302 302 302 301 302 302 302 301 301 301 301 301 302 301 301 301 302 302 301
296 296 296 296 296 296 294 293 293 294 294 294 296 298 298 297 295 294 295 298 299 299 298 297 297 297 297 297 298 298 298 298 299 300 300 300 300 300 300 301 301 300 300 300 300 300 300 300 300 300 300 301 301 301 301 300 300 301 301 301 301 301 301 301 301 301 301 301 302 302 301 301 301 301 301 301 300 300 300 300 300 300 300 300 301 300 301
296 296 296 296 296 296 295 294 293 293 294 294 295 297 298 297 295 296 298 299 298 298 298 297 298 298 297 297 297 297 297 298 298 299 299 299 300 300 299 300 300 299 300 300 300 300 300 300 300 300 299 300 300 300 300 300 300 300 300 301 301 301 301 300 300 300 300 301 301 301 301 300 300 300 300 300 299 299 299 299 299 299 299 299 299 299 299
296 296 296 296 296 296 296 295 293 293 294 294 295 297 298 296 296 297 298 298 298 299 299 298 298 297 297 297 297 297 297 297 297 297 298 298 300 300 300 300 299 299 300 299 299 299 299 299 299 298 299 299 300 299 299 299 299 300 299 299 300 300 300 299 299 299 299 299 300 300 300 300 299 299 299 299 299 299 299 299 299 299 299 298 299 299 299
295 295 295 296 296 295 295 295 293 292 293 294 295 297 298 296 296 297 298 297 297 298 299 299 297 296 296 296 296 296 296 296 296 297 297 298 299 299 299 299 298 299 299 299 298 299 298 298 298 298 298 299 299 298 298 298 299 299 299 298 299 299 298 298 298 298 298 298 299 299 299 299 299 298 298 298 299 298 298 298 298 298 298 298 298 298 298
295 295 295 295 296 295 295 294 292 292 293 294 295 297 297 297 296 296 297 297 297 297 298 299 297 295 296 297 296 296 296 296 296 297 297 297 298 298 298 298 298 298 298 298 298 298 298 298 299 298 298 299 299 298 298 298 298 299 298 298 299 299 298 298 298 298 297 298 298 298 298 298 298 298 298 298 298 298 298 297 298 298 298 298 298 298 298
295 295 295 295 295 295 294 293 292 292 293 294 296 297 297 297 296 296 296 297 298 297 298 298 297 296 297 296 296 296 296 296 296 297 296 297 297 297 298 298 298 298 298 298 298 298 298 298 298 298 298 299 299 298 299 298 298 298 298 298 299 298 298 298 298 297 297 297 298 298 298 297 298 298 298 297 297 297 297 297 298 298 298 298 299 299 298
295 295 295 295 295 294 294 293 292 292 293 295 296 297 297 297 297 296 296 296 298 298 298 298 298 297 297 297 296 296 296 296 296 296 296 296 296 296 297 297 297 298 298 298 298 298 298 298 298 298 298 298 298 298 298 298 298 297 297 298 298 298 297 297 297 297 297 297 297 297 297 297 297 297 297 298 298 298 298 298 299 299 299 299 299 298 298
295 295 295 295 295 294 294 293 292 292 294 296 297 298 298 297 297 296 295 296 297 297 297 297 297 297 297 297 296 296 296 295 296 296 296 296 296 296 296 296 297 297 297 297 297 297 298 298 298 298 298 298 297 297 297 297 297 297 298 298 298 297 297 297 296 297 297 297 297 297 297 297 298 298 298 298 298 298 299 299 299 299 299 298 298 298 298
295 295 295 295 295 294 294 293 293 293 295 297 298 298 298 299 298 296 294 295 296 297 297 298 297 297 297 296 296 296 295 295 295 295 296 295 296 296 296 295 296 297 297 297 297 297 297 297 297 297 298 297 297 296 296 296 296 297 297 297 297 297 296 296 296 297 297 297 298 298 298 298 298 298 298 298 298 298 298 298 298 298 298 298 298 298 298
295 295 295 295 294 294 294 293 293 295 296 298 298 298 298 299 298 295 293 294 296 297 297 297 297 297 296 296 296 295 295 295 295 295 296 296 296 296 295 295 296 296 296 297 297 297 296 297 297 297 298 297 296 296 296 296 296 297 297 297 296 296 297 297 297 297 298 298 297 297 297 297 297 297 297 297 297 297 297 297 297 297 297 297 297 297 297
295 295 295 295 294 294 294 293 293 295 296 296 296 297 296 296 295 293 293 295 296 297 297 297 296 296 297 297 296 295 294 295 296 296 296 296 295 295 295 295 296 296 296 295 296 296 296 297 296 296 297 297 296 296 296 296 296 296 297 296 296 296 297 298 298 298 297 297 297 297 297 297 297 297 297 297 296 296 296 296 297 297 297 297 297 297 297
295 295 295 295 294 294 294 293 293 295 296 296 296 296 294 293 293 293 293 295 297 297 297 297 296 295 296 296 296 295 295 296 297 296 296 296 295 295 296 296 296 296 295 295 295 296 296 296 296 296 296 296 296 295 295 296 296 296 296 296 297 297 297 297 297 297 296 296 296 296 297 297 297 296 296 296 296 296 296 297 297 297 297 297 297 297 297
295 295 295 295 294 294 294 294 294 296 297 297 297 297 294 292 292 292 293 295 297 297 296 296 296 296 296 296 297 296 295 296 297 296 296 296 295 295 296 296 296 296 296 295 295 296 296 296 296 296 296 296 296 295 295 295 296 296 296 296 297 298 297 297 296 296 296 296 296 296 296 296 296 296 296 296 296 296 296 296 296 296 296 297 297 296 296
295 295 295 295 294 294 295 296 296 297 297 297 297 296 294 292 292 293 294 296 297 297 296 295 296 297 296 296 297 296 295 296 297 296 296 296 295 295 295 295 296 296 296 295 295 295 296 296 296 295 296 296 295 295 295 296 296 296 296 297 298 298 297 297 296 296 296 296 296 296 296 296 296 296 297 296 296 296 296 295 295 295 295 295 295 294 294
295 295 295 295 295 296 298 298 297 297 297 297 297 295 293 292 293 293 294 295 296 297 297 296 296 297 296 296 296 296 295 296 297 296 296 296 295 295 295 295 295 296 295 295 295 296 296 296 295 295 296 296 295 295 296 296 296 296 297 297 298 297 297 297 296 296 296 296 296 296 296 296 296 296 296 296 296 295 295 294 294 294 294 294 294 293 293
294 294 295 296 297 298 298 298 297 296 296 294 294 293 293 294 294 295 295 296 296 296 297 297 297 297 297 296 296 296 296 296 296 296 296 296 295 295 295 295 295 295 294 295 296 296 295 295 295 295 295 295 295 296 297 296 295 296 297 297 297 297 296 296 296 296 296 296 296 296 296 296 296 296 296 295 295 294 294 294 294 294 293 293 293 293 292
295 295 296 298 298 298 298 298 297 295 293 292 293 295 296 296 297 297 297 297 296 296 296 296 297 297 297 296 297 296 295 296 296 296 296 295 295 295 295 295 295 294 294 295 296 295 295 295 295 295 295 296 296 296 296 295 296 296 297 297 297 296 296 296 296 296 296 296 296 296 296 295 296 295 295 295 294 294 294 294 293 293 293 293 292 292 292
296 297 298 298 298 298 298 297 295 293 292 293 295 297 297 296 296 297 296 296 296 296 296 297 297 297 297 297 297 296 296 296 296 296 295 295 295 294 294 294 294 294 293 294 295 294 293 294 295 295 295 295 296 295 295 295 296 296 297 297 296 296 296 296 296 296 296 296 296 296 295 295 295 295 294 294 294 294 294 293 293 293 292 292 292 292 292
297 297 297 298 298 297 297 295 294 293 295 296 297 297 296 296 296 297 296 296 296 297 297 296 297 297 296 296 297 296 296 296 296 295 295 295 295 294 294 294 294 293 293 294 295 294 293 293 294 294 295 295 296 296 295 295 295 296 296 296 296 296 296 296 296 296 296 295 295 295 295 295 294 294 294 294 294 293 293 292 292 292 292 292 291 291 291
296 296 296 296 297 296 295 295 295 296 296 296 296 295 295 296 296 296 296 296 296 297 297 296 297 297 297 296 296 296 296 296 295 295 295 295 295 295 294 294 294 293 292 294 295 294 293 293 294 294 294 295 295 295 295 295 295 295 295 295 296 296 296 296 296 295 295 295 295 295 295 294 294 294 294 293 293 293 292 292 292 292 292 291 291 291 291
295 295 295 295 295 295 295 296 296 297 296 295 295 295 295 295 296 296 296 296 296 296 296 296 296 297 297 296 296 296 296 295 295 295 294 295 295 294 294 294 294 293 293 294 295 294 293 293 293 294 295 295 295 295 295 295 294 295 295 296 296 296 296 296 295 295 295 295 295 295 294 294 294 294 294 294 293 293 293 292 292 292 291 291 291 291 291
295 295 295 295 296 296 295 296 296 296 295 295 294 294 295 295 296 296 296 297 296 296 296 297 296 296 296 296 296 296 295 295 295 295 295 295 294 294 294 293 293 293 294 295 294 293 293 293 293 294 295 295 294 294 295 294 294 295 296 296 296 296 295 295 295 295 295 295 295 295 294 294 294 294 294 294 294 294 293 293 292 291 291 290 290 291 291
296 296 295 296 296 295 295 295 295 295 295 295 295 295 295 296 296 297 297 297 297 297 297 296 296 296 296 296 296 295 295 295 294 294 294 295 294 294 293 293 293 294 295 294 293 293 293 293 294 295 295 294 294 294 293 293 294 295 296 296 296 296 295 294 294 295 295 295 295 294 294 294 294 294 293 294 294 294 293 293 292 291 290 290 289 290 290
296 295 295 296 295 294 294 294 294 295 295 295 295 296 296 297 297 297 297 297 297 296 296 296 296 296 296 296 295 295 295 295 294 294 294 295 294 293 293 294 294 294 294 293 293 293 293 293 294 295 294 294 293 293 292 293 295 296 296 295 296 295 295 295 294 294 295 294 294 294 294 294 293 293 293 293 293 293 292 292 291 291 291 290 290 290 289
295 295 295 295 295 295 295 295 295 296 297 297 297 297 298 298 298 298 297 297 296 296 296 296 296 296 296 296 295 295 295 295 294 295 295 294 293 293 294 294 294 293 293 293 293 293 293 294 295 295 294 293 293 292 292 294 295 295 295 296 295 295 295 295 295 294 294 294 294 294 294 294 294 293 293 293 292 292 291 291 290 290 290 290 290 290 290
295 295 295 295 295 295 296 296 296 297 298 298 298 298 298 298 297 297 297 296 296 296 296 295 295 296 296 295 295 295 295 295 294 295 295 294 294 294 294 293 293 293 293 293 293 292 293 294 295 294 293 293 293 292 293 294 295 295 295 295 295 295 295 295 295 295 294 294 294 294 294 294 294 293 293 292 292 292 291 291 290 290 289 289 289 289 290
295 295 295 295 296 296 297 297 298 298 298 298 297 297 297 297 297 297 297 296 296 296 295 296 295 296 295 295 295 295 295 295 294 294 294 294 294 293 293 292 292 293 293 293 293 293 294 295 294 294 293 293 293 293 293 294 294 294 295 295 295 295 295 295 295 295 294 294 294 295 295 294 294 293 293 292 292 291 291 291 290 290 290 289 288 288 288
294 294 294 295 296 297 297 297 298 298 298 298 298 297 297 297 297 296 296 296 295 295 295 295 295 295 295 295 295 295 295 294 294 294 294 294 293 293 292 292 292 293 293 294 294 295 295 295 294 294 293 293 293 293 293 294 294 295 295 295 295 295 295 295 295 295 294 294 294 295 295 294 294 293 293 293 292 291 291 291 291 290 289 289 289 288 287
293 294 294 295 295 297 298 297 297 298 298 298 298 297 297 296 296 296 296 295 295 295 295 295 295 294 295 295 294 294 294 295 294 294 293 293 293 293 293 293 293 293 294 294 295 295 295 294 294 294 293 293 293 293 293 294 294 295 295 295 295 295 295 295 296 295 295 295 295 295 295 294 294 293 293 292 292 291 290 290 290 290 290 289 289 288 287
293 294 294 295 295 296 297 297 297 298 298 298 298 297 297 296 296 296 296 295 295 295 295 295 295 295 294 294 293 293 294 294 294 294 294 294 294 294 293 293 294 294 295 295 295 295 295 294 294 294 293 293 293 293 294 294 294 294 295 296 296 295 295 295 295 296 296 296 296 295 295 294 294 294 293 292 291 291 291 290 290 290 290 290 289 289 289
294 294 295 295 296 296 296 297 297 297 297 297 297 297 296 296 296 296 295 295 295 295 295 295 295 294 294 294 294 294 294 294 293 293 294 294 295 294 294 294 295 295 295 295 295 294 294 294 294 294 293 293 293 293 293 294 294 294 295 295 296 296 295 295 295 296 296 296 296 296 295 295 294 293 293 292 292 292 292 291 290 290 290 290 290 289 289
Wind_Speed
25 25 26 26 25 24 24 22 22 22 20 16 11 6 6 10 5 2 4 8 10 9 9 8 8 8 8 8 7 2 3 7 6 5 7 8 7 6 5 6 7 7 7 6 7 6 5 8 7 4 5 1 8 7 5 2 3 4 7 4 4 2 4 7 8 8 11 14 11 7 5 7 10 10 9 9 9 9 9 9 7 7 8 8 8 8 2
26 26 26 26 26 25 24 22 20 19 18 16 13 8 7 9 6 2 2 6 10 9 8 7 8 8 9 8 7 5 6 6 6 5 6 5 5 5 5 5 5 5 5 5 8 7 4 7 6 4 5 3 9 6 4 2 7 3 3 3 3 1 5 6 7 8 7 10 11 9 7 6 7 8 11 12 11 11 10 9 8 8 11 11 9 9 3
26 26 26 27 27 25 24 23 19 16 13 12 11 9 9 8 7 7 4 4 10 11 7 7 7 6 7 8 8 8 6 4 6 6 4 3 4 4 4 4 4 5 5 5 8 8 5 5 5 4 5 3 7 5 4 4 6 3 7 6 3 3 6 5 6 7 6 7 7 5 4 4 5 8 12 11 9 10 9 8 8 9 11 12 11 9 3
26 27 26 27 27 26 25 24 20 16 13 9 8 7 9 8 4 5 5 5 9 11 8 9 9 6 6 7 8 10 8 5 4 6 5 4 5 6 5 5 5 7 7 6 8 9 8 7 6 5 6 4 6 4 4 4 1 8 6 4 5 5 6 8 9 10 9 10 10 9 8 7 8 10 11 10 9 10 9 8 8 9 10 11 11 12 9
26 27 27 27 28 27 27 25 22 20 15 9 6 6 7 6 3 2 2 2 6 6 4 6 7 4 4 4 4 8 9 5 5 5 5 3 4 6 6 6 7 7 8 7 8 9 9 9 8 7 8 5 6 6 4 5 4 6 2 4 4 5 7 10 13 14 14 15 16 16 14 13 14 14 14 15 15 14 11 10 11 11 10 11 12 12 12
27 27 27 27 28 28 27 26 24 22 16 10 7 6 6 4 2 4 5 3 2 1 2 4 5 2 3 3 3 5 9 7 4 4 4 3 4 5 5 6 8 8 8 7 7 9 9 8 8 8 8 6 4 6 7 7 7 5 7 6 3 6 8 10 13 15 15 16 17 18 16 15 16 17 16 17 18 18 16 16 16 14 11 12 14 15 14
28 28 27 27 28 28 28 27 27 22 15 13 11 8 9 8 4 5 5 4 2 4 5 6 5 3 2 2 2 5 7 7 3 2 4 3 3 3 4 6 7 6 6 6 6 8 8 8 8 7 6 8 6 4 6 7 7 7 8 6 3 4 6 8 11 13 15 16 17 17 16 16 17 19 19 18 19 20 19 19 19 19 18 18 18 19 18
28 28 28 28 28 29 28 27 28 23 16 18 19 15 12 9 6 7 8 4 3 5 5 5 5 3 1 1 2 3 5 5 3 2 4 3 2 3 6 7 5 4 5 5 3 4 5 3 3 4 4 6 6 6 7 6 6 7 8 6 4 2 4 7 9 11 13 15 16 17 17 18 18 20 20 20 20 20 19 19 18 18 19 19 19 18 15
28 28 28 28 27 28 28 27 27 25 20 20 19 17 14 10 7 8 9 4 3 5 3 3 5 3 1 2 2 2 3 3 2 1 4 3 2 4 6 5 4 6 5 1 4 7 6 4 4 3 4 5 5 5 5 5 5 7 8 6 4 4 6 8 9 10 11 13 15 17 17 18 19 20 20 20 19 17 16 16 15 15 16 17 17 14 11
27 27 27 27 27 27 28 27 27 26 24 23 19 18 18 12 8 9 9 3 3 5 3 1 3 1 3 3 2 2 3 2 1 1 2 2 3 4 5 5 5 6 3 2 5 7 7 5 5 5 6 7 8 7 6 6 6 6 6 6 6 6 7 8 8 9 11 13 15 15 14 13 13 12 13 17 18 18 19 18 17 17 16 14 13 12 10
27 27 27 27 26 26 26 26 26 25 24 24 19 17 19 16 12 12 10 4 2 5 4 2 3 3 3 3 3 2 3 3 3 4 2 1 4 6 5 5 5 2 3 5 5 6 6 6 6 7 8 9 10 10 10 9 9 9 8 6 7 8 8 8 8 8 11 13 14 12 11 11 8 3 5 10 12 14 15 15 15 16 14 12 12 11 11
26 26 26 26 26 25 25 25 25 24 22 22 17 15 17 16 12 12 10 5 3 4 3 4 5 4 3 3 4 2 3 3 4 6 4 1 3 6 6 6 4 3 6 6 7 6 7 8 8 9 11 12 13 13 14 13 13 14 13 10 9 9 9 8 8 8 10 11 11 11 12 11 7 3 2 4 7 8 10 11 12 12 11 11 13 12 11
25 25 25 25 25 24 24 24 24 22 20 19 17 16 17 15 12 12 11 6 3 5 4 3 4 4 4 4 3 2 3 3 3 4 4 2 3 4 5 6 6 6 7 8 8 8 8 9 9 10 12 13 13 15 17 16 16 16 16 14 11 9 9 8 8 9 9 9 9 11 10 7 6 8 5 3 5 7 8 11 10 7 6 8 11 10 8
23 24 24 24 24 23 23 23 23 21 19 17 17 16 16 15 13 12 11 8 3 5 5 1 3 5 5 4 5 4 4 2 2 2 1 2 4 4 4 6 6 6 7 7 7 7 6 6 7 8 9 10 10 12 14 15 16 16 15 14 12 10 9 8 8 9 8 9 10 10 10 10 9 6 2 2 4 4 5 8 8 4 3 6 8 9 8
22 23 23 23 23 23 23 23 22 20 18 17 16 15 16 15 12 10 11 10 5 4 6 6 6 8 6 4 5 6 4 2 2 2 3 0 3 3 3 5 6 5 6 6 6 6 5 5 7 7 6 7 8 8 8 9 9 9 9 11 10 10 10 9 9 8 7 9 9 8 10 10 4 2 5 5 4 4 4 7 6 2 2 4 7 9 9
21 22 22 22 22 22 22 22 21 20 18 16 15 15 17 16 12 9 9 10 7 3 7 9 8 8 8 3 2 4 4 3 3 3 3 2 1 3 3 5 6 5 5 6 6 5 5 6 7 6 7 8 8 7 6 6 5 4 4 8 11 11 9 9 9 8 8 9 8 8 8 5 3 5 4 5 5 5 4 7 5 1 2 5 7 9 9
21 21 21 21 21 22 21 21 21 19 17 16 15 14 17 18 14 10 8 9 6 4 8 10 9 8 6 3 1 3 5 4 3 3 2 1 2 4 5 5 4 3 4 6 5 5 6 6 6 7 7 6 7 7 6 6 6 5 6 7 10 10 8 8 9 9 9 9 8 8 6 0 5 4 3 4 5 4 6 8 2 4 3 5 6 9 10
20 20 21 21 20 20 20 20 20 18 16 16 14 12 16 19 15 10 8 8 5 5 8 10 9 7 6 5 4 5 6 5 3 3 3 2 3 5 7 7 4 2 2 4 4 4 6 6 6 7 5 2 3 5 5 3 5 7 6 6 6 6 6 7 8 9 10 10 9 8 4 2 4 2 2 3 3 4 7 7 3 3 5 8 8 10 11
20 20 20 20 20 20 19 19 19 18 16 16 15 11 16 20 16 10 8 7 6 5 7 8 8 8 8 6 4 2 3 4 3 4 4 1 4 6 5 4 3 2 3 4 4 4 5 5 4 5 5 2 1 4 6 4 4 6 7 6 6 5 5 6 7 8 8 8 8 8 4 2 5 5 4 4 5 5 4 5 6 7 10 11 12 13 13
20 20 20 20 20 19 19 18 17 17 16 15 16 12 15 20 19 13 8 7 7 3 6 6 7 8 8 7 6 6 5 4 5 6 5 3 5 7 5 3 1 3 3 3 3 2 3 5 3 2 5 4 1 1 5 6 5 6 6 6 6 4 5 6 7 7 7 8 8 9 4 2 7 8 5 3 4 6 9 11 11 12 13 14 15 15 14
18 19 19 20 19 19 18 17 15 15 14 13 15 13 12 17 19 14 8 7 8 5 6 6 6 6 6 7 7 8 7 6 6 7 7 6 5 5 3 1 4 4 3 3 3 1 2 4 3 1 4 4 1 2 4 5 5 5 4 6 6 4 5 6 5 4 6 7 6 3 1 1 6 7 5 4 7 11 14 15 16 16 16 17 17 17 16
18 18 19 19 19 19 18 16 14 13 12 11 12 12 12 15 17 13 10 9 6 5 6 6 4 5 5 6 6 6 5 5 5 6 7 7 5 4 4 5 5 5 5 5 4 1 1 3 3 3 5 4 3 4 5 5 4 2 3 4 5 2 3 6 5 4 6 7 7 6 7 11 12 10 10 11 13 14 16 17 19 19 18 18 18 19 19
19 19 19 19 19 18 18 16 13 12 11 11 11 11 11 14 15 12 9 5 2 3 4 2 1 4 4 5 6 5 4 4 5 6 7 6 4 3 4 5 4 4 6 7 6 4 3 3 3 4 4 4 4 5 5 5 6 3 3 4 4 3 5 6 5 6 8 11 13 14 15 15 14 13 13 15 17 18 18 19 20 19 19 19 19 21 22
19 20 20 20 19 18 18 16 13 10 9 10 11 11 11 13 15 13 9 5 3 1 2 2 2 4 4 4 5 4 3 4 5 5 6 6 4 2 3 6 5 4 4 6 6 6 5 4 3 4 4 3 3 4 4 4 5 4 4 6 4 3 5 5 7 7 8 9 10 12 13 13 14 16 17 17 18 19 18 18 19 19 19 20 21 22 24
19 20 20 20 20 19 18 16 12 9 8 7 9 10 9 12 14 13 10 6 5 6 2 4 6 4 2 2 3 4 4 4 5 4 4 4 4 4 5 6 6 5 4 5 5 6 5 4 3 4 4 2 2 3 3 2 3 2 3 6 5 3 5 4 8 9 8 10 12 15 17 18 18 17 17 17 18 18 18 19 20 21 22 23 24 25 27
18 20 20 20 20 19 18 16 12 8 7 6 8 9 8 10 12 12 9 7 5 6 3 3 5 3 1 2 3 4 4 4 4 4 3 4 4 5 6 6 6 5 5 5 5 5 6 5 4 4 4 1 2 4 4 3 4 4 4 7 8 6 4 6 8 8 9 10 12 14 15 15 15 16 17 18 19 20 21 22 23 24 25 26 26 27 27
17 19 19 20 20 18 17 16 11 7 6 5 6 7 6 8 11 11 10 8 6 3 1 3 4 3 2 3 3 3 3 4 4 3 3 4 4 5 6 6 6 6 6 5 5 5 6 5 4 4 5 4 4 6 6 5 5 6 7 8 9 9 7 6 6 7 7 8 10 12 11 11 15 19 20 21 22 23 23 23 24 25 25 24 24 24 24
17 18 19 19 18 17 16 15 10 6 5 5 6 5 4 6 9 9 8 8 6 4 4 3 4 4 2 2 2 2 3 3 4 4 4 4 4 5 5 6 6 6 5 5 5 4 5 5 4 4 4 5 5 5 6 5 5 6 6 5 5 6 7 7 7 8 9 12 15 17 15 15 18 22 23 23 23 23 23 22 22 22 22 22 23 24 25
16 17 18 18 17 16 15 13 9 6 5 6 6 2 3 3 8 10 9 8 5 4 4 2 2 3 2 3 3 3 3 4 5 5 5 5 5 5 6 6 6 6 6 5 6 6 5 5 6 5 2 1 3 4 5 5 6 6 6 5 5 6 8 9 10 11 13 16 18 18 18 20 21 22 23 22 21 21 21 22 22 22 23 24 24 24 25
15 16 17 17 16 15 14 11 8 7 8 8 5 5 6 1 4 8 10 8 5 3 4 4 1 2 2 2 3 4 4 5 5 5 5 5 5 5 6 6 6 6 6 6 6 6 6 6 7 6 1 0 4 6 5 5 6 6 6 7 7 9 11 12 12 13 15 18 18 18 19 22 22 21 21 19 18 19 22 23 23 24 24 25 25 25 24
14 15 16 15 14 14 13 9 7 8 10 9 7 6 4 1 3 7 8 7 4 3 5 5 2 1 3 1 2 5 6 6 5 5 4 4 5 5 5 6 6 5 6 7 7 6 6 6 5 5 3 2 3 5 5 5 7 5 6 10 12 13 14 14 14 14 16 18 19 19 19 19 18 18 18 18 19 21 22 22 22 23 24 24 23 23 23
12 14 15 14 13 12 10 7 6 7 7 8 7 4 2 3 5 5 6 6 4 3 5 4 2 1 1 1 0 3 6 5 5 5 3 2 5 7 5 4 5 5 5 7 7 6 5 5 6 7 4 2 2 4 5 6 6 6 10 14 15 14 14 14 14 14 14 14 16 16 17 16 16 17 19 20 20 20 20 21 22 23 24 24 23 23 22
10 12 13 13 12 11 8 6 6 7 7 8 7 4 5 6 5 3 3 4 3 3 4 3 2 1 1 1 1 3 7 5 3 4 3 2 4 7 5 4 4 4 3 4 5 4 3 4 6 7 3 1 2 5 6 5 5 8 12 15 14 13 13 12 13 13 13 14 14 15 16 17 18 18 18 18 19 20 20 20 21 22 22 22 21 19 18
9 10 11 12 11 10 7 5 6 7 8 8 6 6 10 9 5 2 1 3 2 3 3 3 4 2 1 2 3 1 5 6 4 5 4 3 5 7 5 4 4 4 3 3 5 5 5 5 6 5 3 3 4 5 4 4 7 11 14 14 13 13 13 13 13 13 14 15 15 15 17 18 18 17 17 18 20 19 18 17 18 19 18 17 16 14 14
9 10 10 11 10 9 8 8 6 5 5 5 4 9 12 8 2 1 1 2 3 4 1 2 5 3 2 2 1 4 5 5 5 5 5 4 4 4 5 6 5 3 2 3 6 6 4 2 3 5 3 3 4 4 4 6 10 13 15 13 12 13 14 14 15 16 16 16 16 16 16 16 16 15 15 16 16 16 15 14 15 15 15 15 14 14 14
9 9 10 10 10 9 8 7 5 4 4 5 7 9 9 5 1 0 2 2 2 3 3 4 5 3 3 4 2 4 5 5 5 5 5 4 3 3 5 6 5 1 1 5 7 5 2 1 2 4 4 3 4 3 4 9 12 13 14 12 11 12 12 13 15 18 18 17 16 14 14 14 14 13 13 13 12 12 12 12 13 13 13 14 14 14 13
10 8 9 10 9 7 5 4 4 6 7 7 7 6 5 4 2 1 2 1 3 3 5 6 4 3 4 5 3 4 5 5 5 5 5 4 4 4 4 5 3 2 3 6 5 2 2 2 3 5 4 2 2 3 5 9 11 11 11 11 10 11 12 12 15 17 18 17 15 13 13 13 13 12 11 11 10 9 9 11 12 13 13 13 13 13 13
9 8 9 8 7 7 5 4 6 8 8 5 4 4 3 2 1 1 2 3 4 4 5 6 4 2 4 5 3 3 4 6 6 5 3 3 3 3 3 3 2 2 4 4 1 1 4 5 4 5 3 1 1 3 6 8 10 10 9 9 9 10 11 12 14 16 16 16 15 14 13 12 11 10 8 7 8 8 9 10 12 13 13 13 13 14 14
9 9 8 7 5 5 6 8 9 7 4 3 3 3 3 3 3 3 3 4 4 4 4 4 3 3 5 6 3 2 3 6 7 4 3 3 3 3 3 3 1 1 5 4 2 1 4 5 4 4 3 1 1 4 7 8 10 10 9 9 9 9 10 11 12 14 13 12 12 11 9 8 7 6 6 5 7 8 9 10 11 12 12 12 13 15 17
8 8 7 6 6 7 8 9 7 3 1 2 3 3 4 4 3 2 2 3 4 4 2 2 3 3 4 5 4 2 2 4 5 5 4 3 2 2 4 4 2 2 5 3 2 1 4 5 4 4 3 0 2 5 8 8 10 11 10 9 8 8 9 10 12 12 11 9 7 5 5 4 4 6 6 6 7 8 9 10 10 10 10 11 13 16 17
8 8 7 7 8 8 7 4 3 2 3 4 3 3 3 4 3 2 3 3 3 2 2 3 5 3 2 3 6 5 2 2 5 6 6 3 1 2 5 4 2 3 5 2 1 2 4 4 4 5 2 1 3 7 8 9 11 13 11 8 7 7 9 10 11 9 7 4 3 3 5 6 7 7 7 7 7 7 8 9 9 9 10 11 12 13 14
9 10 10 9 9 7 5 3 3 3 3 3 3 3 3 3 2 3 4 3 2 2 1 2 4 5 3 4 8 7 3 2 4 6 5 2 2 3 4 3 2 3 4 3 2 3 4 4 5 4 0 2 5 8 9 10 13 13 11 8 7 8 9 9 8 5 3 3 4 5 6 7 7 7 7 6 6 6 7 7 7 8 10 10 11 11 12
10 10 10 8 7 6 5 4 4 4 2 2 2 2 2 3 3 3 3 2 2 2 2 1 4 6 4 3 4 5 4 3 5 6 5 3 3 3 4 3 3 4 4 4 4 5 4 4 5 3 1 2 5 8 9 11 13 12 9 7 7 8 9 7 4 2 3 4 5 6 7 6 5 5 5 5 5 6 7 7 7 8 10 11 11 11 10
8 7 7 7 5 4 3 3 3 3 2 2 3 3 3 2 2 2 2 0 1 3 3 4 6 7 4 3 5 6 5 4 4 4 5 5 4 3 3 3 4 4 4 4 5 5 4 4 5 4 2 2 4 7 10 12 13 11 8 7 7 8 8 5 3 4 5 5 6 6 5 4 4 4 4 5 6 7 7 7 7 8 10 11 12 11 11
7 6 5 5 3 3 2 2 3 4 3 3 3 3 4 4 3 3 2 2 2 5 7 7 8 9 8 7 6 6 5 4 3 3 4 4 3 4 4 4 4 4 4 5 5 5 4 5 4 2 2 1 3 7 10 11 10 9 7 7 7 8 6 4 5 5 5 6 5 4 4 4 4 4 5 5 6 6 7 7 7 7 7 8 9 10 11
6 5 4 4 3 4 3 2 2 3 3 4 4 5 6 6 6 6 5 4 6 8 9 8 8 9 9 8 6 5 6 6 5 4 5 4 4 4 5 5 5 4 4 5 6 5 5 5 2 4 7 4 3 7 8 8 8 8 7 5 5 6 5 4 4 4 4 5 4 4 3 3 3 4 5 5 5 6 6 7 7 7 7 7 8 8 9
6 5 4 4 4 4 5 5 5 4 4 5 6 8 8 7 8 8 7 7 7 8 8 9 9 8 8 8 7 7 8 7 5 5 5 4 4 4 4 4 4 4 5 6 6 5 5 5 0 8 8 2 3 6 7 7 7 8 7 4 3 4 3 2 4 4 4 5 4 3 3 2 3 3 3 4 4 5 5 6 6 7 7 7 7 8 8
5 4 4 3 3 3 4 5 6 8 8 8 8 8 8 8 9 8 7 6 7 7 7 8 7 7 7 6 6 6 7 6 5 6 6 4 4 4 4 4 5 5 5 6 6 5 5 4 2 7 5 2 4 5 7 8 7 8 7 4 3 3 1 2 4 7 7 6 4 4 3 2 2 2 1 2 3 4 4 4 5 6 6 6 7 8 8
5 5 5 5 5 6 7 8 8 9 10 9 8 8 8 9 9 9 8 7 7 7 7 7 6 6 5 5 5 6 6 5 4 4 4 5 4 4 4 5 6 6 5 5 5 6 7 5 2 1 2 4 5 6 7 7 7 7 7 5 3 4 3 3 5 8 10 9 7 5 4 3 2 2 1 1 2 2 3 3 4 5 5 6 7 8 9
6 7 7 7 7 8 9 9 8 8 8 9 8 8 8 9 9 8 6 6 7 7 7 7 7 5 5 5 4 4 5 5 5 5 5 6 5 5 6 7 7 6 5 6 7 7 7 7 6 5 5 5 6 7 8 7 6 7 6 5 4 5 5 5 6 8 10 10 8 7 6 5 4 3 2 1 1 1 2 2 3 4 5 6 7 8 9
5 6 8 10 11 10 10 9 8 8 8 9 9 8 8 9 10 8 6 6 7 7 7 7 7 5 4 4 4 4 4 4 5 6 7 6 5 6 7 8 7 6 7 8 9 9 8 7 7 6 6 6 7 8 8 7 7 7 7 6 5 6 7 7 8 9 10 10 10 9 9 7 6 4 4 3 3 1 1 2 2 3 4 5 5 6 7
6 7 9 11 13 14 14 14 13 12 12 11 11 10 9 9 9 8 7 7 8 8 8 8 6 5 4 4 5 4 4 4 5 6 7 6 6 7 8 9 9 10 11 11 10 10 9 8 7 6 7 8 9 9 8 8 8 8 7 6 6 7 8 9 9 9 11 12 12 12 10 9 8 7 6 5 4 3 1 0 1 1 2 3 4 5 6
Wind_Direction
12 9 6 5 2 360 358 357 355 351 349 354 357 336 267 246 242 116 177 201 195 211 236 234 232 240 244 253 255 247 251 247 242 228 218 225 236 232 240 259 259 257 260 264 259 250 254 258 254 251 254 128 95 110 126 169 230 242 268 279 90 90 263 259 264 263 264 268 255 224 233 268 269 263 262 264 265 267 272 279 290 287 276 276 276 269 253
14 12 9 7 6 3 1 0 1 355 349 352 354 337 296 277 268 243 212 200 200 220 242 236 234 234 233 241 240 232 247 251 252 250 227 222 243 246 247 254 251 250 251 262 265 260 254 253 247 261 269 113 107 121 122 202 236 236 332 343 89 187 250 248 263 266 252 250 245 229 223 242 260 259 251 252 263 276 281 284 286 272 265 267 268 270 264
15 14 11 10 9 7 5 3 5 2 354 350 347 328 303 288 262 234 220 193 209 231 260 267 263 253 238 244 243 230 221 234 269 279 265 263 282 274 267 272 265 257 252 254 260 261 263 255 236 251 268 125 116 135 144 223 253 51 36 348 312 267 268 263 264 265 259 253 253 257 256 255 273 273 258 250 265 281 281 279 271 260 265 268 265 271 268
17 16 13 12 11 10 9 7 8 13 9 358 356 335 301 290 266 224 209 196 217 236 262 268 265 269 256 245 244 239 223 194 229 261 254 242 262 266 269 274 262 259 260 258 258 253 244 242 239 244 248 189 138 143 174 218 281 68 58 316 285 268 265 263 262 263 268 276 285 301 305 285 277 281 274 260 253 258 264 269 269 270 278 272 261 270 273
18 18 16 14 13 13 12 11 12 17 15 10 6 341 307 297 330 343 317 228 223 227 240 258 258 261 260 250 247 252 248 221 186 219 239 237 252 257 258 259 253 253 257 255 257 259 245 234 239 249 254 227 137 132 207 212 112 93 169 236 252 265 257 255 260 262 267 276 282 285 285 281 278 277 273 267 263 261 260 260 267 279 283 271 267 277 280
19 19 19 16 14 15 15 15 17 14 14 15 358 340 343 343 9 16 350 309 268 275 350 321 305 280 250 256 263 259 254 244 208 213 240 234 237 250 248 252 253 248 251 251 248 257 254 243 241 243 250 248 168 152 212 202 149 169 228 212 219 266 262 257 261 262 263 267 271 272 272 274 275 271 267 268 268 267 265 262 264 269 268 269 279 287 285
20 19 20 18 17 18 17 19 21 16 18 35 29 25 25 10 21 31 343 310 350 355 335 317 304 306 327 295 268 271 262 249 240 277 282 240 226 269 261 250 258 257 258 263 254 258 264 254 249 250 255 261 249 213 219 202 175 209 236 213 200 266 268 265 270 270 269 268 269 270 270 270 270 267 263 262 262 262 263 263 264 264 264 267 276 280 280
20 19 20 19 18 19 19 21 23 19 28 46 41 38 32 6 2 359 320 299 18 343 314 297 275 246 289 280 251 291 282 254 236 297 320 286 263 302 278 254 260 278 272 271 290 338 339 312 289 295 279 265 262 257 255 242 211 220 236 225 195 225 267 274 277 277 274 275 276 274 271 270 270 266 262 260 260 260 259 261 263 263 265 268 272 274 276
19 19 20 20 19 19 19 22 24 22 32 45 36 30 27 2 346 342 319 311 3 320 291 289 278 241 175 299 293 310 297 271 253 13 10 347 345 337 316 300 282 270 261 279 25 19 7 6 11 339 286 274 280 278 281 288 259 236 242 243 216 221 265 275 275 271 269 271 273 272 273 273 270 265 263 261 260 261 262 262 263 263 267 272 274 271 271
17 18 19 20 19 18 18 21 24 24 33 42 30 19 21 10 352 346 323 307 7 319 278 244 285 305 45 359 330 301 291 281 292 349 25 27 16 357 337 322 285 262 254 44 23 360 346 345 338 310 284 277 278 276 276 283 280 268 264 259 244 244 264 273 271 270 271 271 272 276 280 278 272 270 270 267 263 263 263 260 261 263 264 267 267 266 276
15 16 18 19 19 19 17 20 24 23 31 41 29 9 14 11 353 340 321 304 25 332 306 16 9 15 27 330 293 294 300 285 297 305 277 118 17 356 347 321 287 278 39 20 348 328 319 312 302 289 279 270 266 266 264 260 257 260 265 265 258 260 266 270 270 270 272 274 279 282 271 259 262 291 304 287 278 270 267 267 269 269 268 276 283 284 291
15 15 17 18 18 19 18 19 24 23 27 40 34 10 14 15 352 334 326 322 1 339 338 55 36 7 4 326 301 316 323 310 327 337 341 57 356 350 0 348 323 9 24 351 326 315 290 270 262 259 258 258 258 256 256 254 251 252 255 256 257 259 261 263 267 266 271 276 275 266 257 255 263 274 306 318 308 294 285 281 277 275 279 292 295 293 295
15 15 16 17 17 19 19 17 22 23 22 33 36 18 17 23 7 348 341 335 8 9 359 83 81 24 7 347 320 303 306 311 317 328 339 339 312 332 6 5 353 357 352 334 321 309 283 262 256 254 251 249 250 249 248 250 251 249 248 250 251 256 258 260 262 259 264 267 253 249 263 269 252 242 236 239 265 277 279 273 270 275 292 301 295 289 294
13 14 15 17 17 18 19 17 20 23 19 26 33 20 17 26 18 1 350 337 7 30 353 322 80 21 353 335 320 290 255 263 287 287 339 341 311 312 341 350 348 342 333 323 300 279 268 266 263 259 255 249 245 247 246 247 248 243 242 245 244 247 251 252 256 257 257 260 254 257 272 266 244 243 295 327 281 293 300 286 280 273 283 311 311 295 286
11 12 13 15 15 16 19 18 19 23 20 26 33 18 14 25 20 3 350 329 322 37 26 18 14 346 325 331 332 306 268 252 274 218 158 101 311 305 330 338 335 326 314 299 274 255 249 260 258 252 253 250 246 249 246 244 243 238 245 253 247 244 249 249 252 253 251 259 262 258 262 263 245 94 61 49 16 2 334 289 283 250 244 315 328 307 287
9 10 11 14 13 15 18 17 20 24 22 29 37 19 9 19 21 11 355 326 313 24 35 20 358 315 301 310 325 315 320 324 304 268 203 154 306 307 341 343 328 316 297 273 258 258 255 249 250 254 253 250 252 255 251 249 236 191 212 258 254 244 244 246 250 253 248 253 259 255 256 271 63 74 67 59 39 21 332 277 272 53 14 339 341 324 306
9 8 9 12 12 14 16 16 20 26 24 29 38 22 8 14 18 17 4 330 323 44 37 10 343 304 299 324 346 346 340 313 287 290 276 198 303 308 334 336 304 279 290 275 248 241 249 243 245 252 249 256 269 259 242 250 249 206 187 230 247 243 238 239 245 249 248 248 253 256 258 286 76 64 37 39 30 359 297 271 273 63 12 328 330 323 316
10 9 9 11 11 12 15 14 18 25 24 28 40 24 7 13 18 16 3 329 322 51 43 13 0 353 355 357 348 355 346 312 283 286 277 277 340 337 339 333 302 209 227 269 252 241 248 244 248 256 253 286 305 268 247 262 268 249 230 231 243 243 238 242 245 246 247 249 253 257 255 69 67 61 26 359 333 286 265 273 334 9 309 304 309 306 306
11 9 8 11 10 11 14 14 15 21 22 31 47 30 0 9 21 21 12 345 335 38 46 21 17 21 8 344 316 337 356 330 320 307 281 300 33 349 314 308 315 285 252 262 261 258 256 247 249 265 261 256 317 274 266 271 274 264 257 253 254 249 241 241 244 249 251 250 258 260 250 40 18 345 313 294 271 252 278 319 329 313 304 309 308 301 299
11 8 7 9 9 9 13 12 13 19 18 30 53 38 354 3 18 22 26 1 334 26 71 37 15 20 18 15 12 10 10 1 351 342 332 11 15 330 276 197 49 324 297 284 281 271 270 265 258 273 271 268 20 321 272 262 262 267 265 259 258 261 257 244 235 245 255 252 259 264 250 35 7 345 325 294 278 308 331 325 308 302 305 303 299 297 297
8 7 7 8 7 7 10 10 10 15 13 25 50 42 359 359 10 18 45 35 345 357 59 32 8 19 28 34 33 22 21 23 8 356 348 343 345 330 311 35 17 351 348 333 309 295 298 290 281 272 273 266 233 244 260 262 261 256 259 271 273 265 263 264 256 257 259 249 249 253 174 351 334 325 308 298 305 314 317 308 299 300 301 297 294 293 292
5 6 5 5 5 3 6 7 6 8 7 14 37 37 6 357 3 12 41 47 13 12 40 32 39 59 51 48 47 33 31 32 15 2 350 337 337 357 6 12 11 3 355 335 308 285 296 290 290 290 279 272 262 260 265 270 262 204 182 243 262 254 270 285 290 288 278 269 276 298 297 292 300 304 296 293 296 297 297 294 291 291 291 292 292 291 290
2 3 2 2 1 359 0 2 2 4 2 1 21 31 7 355 3 14 22 23 13 50 52 37 85 92 71 51 37 26 23 20 10 7 358 344 345 22 24 19 14 360 352 345 332 331 328 313 319 312 289 285 289 275 265 260 256 244 216 233 252 311 310 292 287 291 287 277 276 286 293 294 298 298 294 293 293 293 292 289 287 287 289 290 290 290 291
0 0 359 358 356 354 354 356 357 360 358 2 25 36 11 354 7 17 8 343 310 333 68 79 31 28 36 23 8 7 14 2 349 351 352 344 343 360 12 6 352 333 349 354 334 317 309 305 312 302 290 311 316 278 269 270 265 277 282 257 258 9 4 307 276 279 284 279 279 287 293 293 293 293 292 292 290 290 291 290 289 291 292 291 291 290 289
357 358 357 354 352 352 351 351 354 357 354 7 36 40 10 355 8 14 7 354 325 303 300 83 56 27 25 29 10 12 16 1 348 344 337 326 315 304 313 331 326 311 320 329 311 296 289 281 277 271 268 306 330 282 271 290 282 287 290 269 267 39 40 310 273 269 275 281 287 291 291 290 289 290 290 292 293 295 297 296 295 294 291 290 289 288 287
354 355 354 352 351 351 350 350 354 358 355 12 47 46 11 355 9 16 13 3 333 297 287 63 56 35 52 60 30 15 15 15 8 357 341 322 305 301 308 312 302 291 295 294 284 285 283 273 269 272 263 273 337 288 272 282 285 278 278 282 284 287 291 289 287 283 280 281 287 293 295 294 292 291 293 298 302 303 302 300 296 293 291 290 288 287 286
351 352 352 352 350 351 352 352 356 3 4 23 55 52 15 0 11 18 16 4 343 297 288 60 72 75 67 56 30 7 8 8 360 353 351 338 318 307 306 304 297 294 294 285 271 271 277 273 268 275 283 297 297 272 262 272 285 277 270 275 278 275 278 298 301 286 280 289 302 309 308 298 295 298 301 305 305 302 300 299 297 294 293 294 293 292 292
348 349 350 351 351 352 352 353 4 19 13 31 54 47 19 20 14 4 4 10 360 327 330 19 88 106 84 42 11 356 358 359 349 340 333 328 323 312 300 292 291 293 293 288 275 265 268 276 276 278 286 293 285 268 261 262 260 258 267 285 295 294 302 311 303 291 292 300 307 309 304 295 295 299 302 304 305 304 304 305 303 302 302 302 301 301 300
343 346 349 351 352 354 355 360 20 33 18 37 51 358 278 31 18 351 349 10 10 323 305 297 163 137 80 32 15 360 352 349 343 335 324 316 314 309 299 291 289 288 286 282 277 273 267 267 276 282 287 293 285 282 279 274 264 266 285 305 314 312 307 303 298 296 296 298 302 304 301 297 299 302 303 306 308 309 310 309 308 307 306 305 303 302 301
339 342 348 351 352 355 0 10 31 38 30 39 31 287 259 149 36 353 350 4 6 324 297 294 285 125 107 57 13 352 343 339 330 326 321 312 305 306 306 302 293 282 276 267 262 272 279 274 272 277 274 206 279 279 280 283 278 280 302 318 323 322 316 309 304 301 299 300 303 304 299 299 301 302 304 307 312 313 312 310 309 309 306 304 301 299 297
334 337 345 352 353 355 3 17 34 38 32 21 347 305 295 17 356 337 348 5 12 321 293 296 309 159 159 141 348 333 335 332 316 306 301 295 300 308 306 299 291 280 279 275 263 266 281 283 274 271 249 203 253 273 284 284 274 283 333 343 334 324 320 317 313 307 304 305 307 305 299 298 302 306 309 313 315 314 313 310 309 309 306 303 299 296 294
330 334 344 351 352 355 2 12 25 36 30 7 346 326 303 302 304 319 347 8 9 320 296 301 310 259 234 157 145 321 326 315 288 291 299 314 318 312 295 285 294 295 293 290 281 273 281 288 283 279 265 189 228 271 277 276 279 309 336 332 323 319 321 323 320 315 314 316 317 312 307 305 309 312 313 313 313 313 312 310 309 308 306 301 297 294 293
331 335 342 347 350 356 357 359 24 47 36 14 12 3 320 316 325 342 12 28 14 311 302 317 306 275 4 81 151 319 324 310 287 307 328 8 333 309 284 270 287 276 251 268 280 275 262 261 269 271 254 180 256 274 273 278 301 321 324 320 321 328 331 327 323 322 323 323 321 314 308 307 309 309 307 307 308 308 308 310 311 311 308 304 300 300 302
332 336 344 345 346 350 352 4 37 45 24 13 8 322 311 322 337 335 28 40 349 289 286 303 288 275 97 164 174 64 347 327 325 337 337 346 337 316 300 288 272 237 211 257 285 277 250 244 265 275 256 229 252 262 271 296 314 322 322 323 331 335 329 323 325 329 327 323 319 314 308 306 307 307 309 312 314 313 315 318 321 324 327 326 325 327 326
334 340 346 344 345 356 12 24 32 18 353 348 315 298 308 320 317 223 108 50 298 275 263 286 284 298 336 266 183 62 14 319 311 329 328 324 324 319 317 304 271 223 189 274 276 267 250 250 295 294 268 244 248 254 286 316 326 331 330 330 334 335 328 324 325 326 324 320 317 314 310 309 312 315 319 324 327 329 330 330 330 334 339 339 340 340 336
342 345 347 354 6 18 20 11 359 329 306 288 281 295 314 333 319 168 80 66 297 305 335 306 286 318 340 311 338 18 344 309 313 326 321 313 303 302 310 300 279 262 304 271 258 256 256 279 298 281 255 243 256 278 328 335 336 337 334 329 333 334 328 323 321 322 322 320 317 316 318 321 325 329 331 336 339 340 340 342 345 349 348 345 344 344 341
341 347 358 4 3 352 337 328 312 297 288 279 279 300 333 360 4 45 62 336 285 297 306 294 297 1 344 318 334 345 323 320 333 327 321 327 318 299 296 296 298 326 285 254 241 274 303 273 268 272 263 249 275 319 347 342 337 336 330 325 326 325 319 319 322 324 324 324 324 328 332 333 335 340 343 348 354 356 360 5 8 6 3 0 358 356 353
345 357 2 351 328 314 316 305 284 283 290 299 308 316 326 322 282 225 223 255 255 246 258 272 288 342 311 295 320 356 333 323 321 317 340 355 324 294 293 300 320 330 285 259 185 360 297 270 255 261 263 254 290 326 342 341 340 340 330 318 317 317 317 324 329 328 326 326 328 333 336 334 338 348 358 9 19 22 25 27 25 22 21 18 14 15 17
358 356 344 330 321 323 317 301 291 290 304 322 314 293 272 255 251 246 235 239 241 232 234 251 273 317 313 305 324 38 356 315 304 308 351 357 336 329 324 315 354 312 285 274 119 109 279 273 256 252 251 233 302 330 341 344 345 345 335 320 317 318 320 327 330 326 323 322 324 331 338 338 347 8 27 39 39 37 39 40 35 29 26 27 32 38 39
355 345 329 322 321 312 301 300 309 329 329 286 278 267 253 244 247 270 279 255 242 226 207 252 278 290 303 304 305 329 350 320 310 315 327 325 323 323 309 306 347 324 286 268 132 161 276 283 276 266 261 194 358 341 345 349 350 347 338 326 322 323 323 328 329 326 324 324 329 347 8 24 44 57 60 57 55 55 54 50 42 32 29 36 46 51 50
341 336 323 309 304 302 302 311 317 290 264 260 252 246 251 249 244 256 266 264 258 229 217 278 293 275 217 268 292 296 314 329 310 299 296 300 327 305 291 296 321 291 275 280 57 283 275 277 277 274 273 61 1 344 349 354 352 347 341 331 328 326 326 330 331 331 333 343 15 51 62 69 75 74 70 66 64 59 51 44 37 30 30 38 45 50 53
323 323 317 307 301 302 309 301 260 240 250 263 250 238 246 249 246 247 245 252 312 319 237 258 300 303 291 291 294 291 295 330 311 286 275 288 330 298 283 290 294 268 270 302 322 285 270 271 274 273 268 39 349 349 359 357 348 344 342 336 333 333 333 334 335 339 6 58 80 87 90 89 82 74 69 65 57 43 34 28 23 23 30 36 37 40 47
328 328 326 320 305 285 274 260 229 213 228 251 236 230 248 239 232 250 253 233 246 273 254 257 298 298 297 293 285 274 267 281 288 278 268 274 287 279 275 275 266 264 279 297 288 272 264 264 272 283 6 14 346 350 358 355 348 346 347 344 339 339 341 342 345 34 85 97 103 104 102 94 76 62 57 51 41 34 30 24 17 20 30 37 37 34 36
328 314 306 305 292 262 246 231 202 198 227 240 214 221 257 255 238 263 286 237 209 260 285 305 299 291 290 296 290 282 269 247 238 256 272 274 266 260 266 263 259 272 288 284 270 266 266 267 276 292 335 10 354 348 349 351 349 346 344 344 343 344 352 12 80 109 109 114 118 111 101 87 66 51 44 39 37 34 30 24 16 13 20 29 33 32 29
322 303 291 287 266 225 213 208 199 208 229 231 219 242 277 295 299 303 332 12 312 289 293 299 295 288 286 284 277 268 259 242 222 232 263 271 262 258 264 269 274 283 283 271 265 266 267 268 271 254 148 91 359 343 342 347 346 340 339 346 349 353 12 68 112 117 118 125 124 111 98 86 67 50 42 39 38 36 33 31 25 17 17 19 21 21 22
311 300 289 285 262 231 223 219 213 223 230 224 236 268 290 304 312 317 320 310 293 288 291 294 292 285 283 278 262 238 241 255 259 257 256 259 261 267 274 279 279 272 263 263 265 262 263 271 271 112 113 104 358 338 335 336 339 340 343 347 350 359 25 90 129 131 128 134 131 116 104 87 65 54 48 44 40 37 37 37 34 30 29 26 20 18 20
294 279 273 278 264 234 223 225 239 262 275 272 276 287 297 301 301 300 296 289 287 290 292 292 287 280 275 273 265 252 246 248 254 263 262 258 260 265 267 269 266 255 249 255 256 250 261 273 142 106 105 83 335 330 325 323 331 340 338 325 318 345 13 119 166 169 161 155 147 140 131 104 78 70 60 48 42 38 38 39 37 34 32 29 24 23 25
283 271 264 262 251 233 230 245 263 273 274 273 276 283 288 289 288 288 287 283 281 282 285 287 287 282 268 253 251 260 260 250 245 251 252 249 256 262 253 249 252 249 245 250 250 251 265 274 113 103 91 360 317 313 310 311 320 330 329 312 283 290 303 185 188 195 195 188 174 166 164 146 114 97 68 52 51 46 41 39 37 34 34 32 30 33 40
267 260 254 257 266 266 261 265 276 281 276 271 269 271 273 276 278 281 284 281 274 274 277 276 278 285 280 259 250 258 260 252 246 247 239 232 239 246 242 244 252 252 248 248 250 254 265 274 283 56 341 307 295 293 296 299 303 312 318 310 267 250 244 211 197 201 203 201 196 191 190 184 177 183 186 77 61 50 44 44 40 35 37 37 35 39 48
253 252 248 250 262 270 266 260 263 272 276 273 266 259 262 269 274 277 278 270 264 267 267 255 247 256 275 275 267 264 256 246 242 244 241 238 240 244 245 247 252 255 255 256 257 260 264 268 273 281 290 289 286 287 291 290 287 294 301 291 254 236 232 219 207 205 206 205 203 201 200 198 196 202 199 168 128 81 53 47 43 36 32 33 34 38 44
240 244 247 249 256 267 274 274 273 276 280 283 280 273 269 268 269 270 268 259 255 259 261 252 243 242 248 248 246 255 265 255 243 241 245 245 243 243 246 247 252 263 269 267 266 267 269 270 273 278 282 282 281 283 285 284 284 288 287 274 251 234 228 221 212 209 209 208 205 204 205 204 204 206 200 186 175 162 74 47 46 44 36 32 35 39 42
236 252 267 267 264 265 269 271 272 273 274 274 275 274 269 264 262 261 256 249 247 251 256 257 251 241 235 241 249 258 264 258 246 244 249 251 250 250 253 256 260 267 271 271 270 268 269 273 279 279 274 274 279 281 279 279 282 284 282 274 259 243 231 222 215 213 212 209 206 206 206 206 206 205 199 196 202 207 196 132 77 63 53 45 44 47 47